[[{"header":{"parameterUnit":"m.s-1","parameterCategory":1,"la1":30.2991,"la2":30.254,"lo1":-89.0895,"lo2":-89.0444,"dy":0.0017,"dx":0.0017,"nx":28,"ny":28,"refTime":"2023-08-02T21:00:00:Z","depth":0,"parameterNumber":2,"parameterNumberName":"U-component_of_WINDS"},"data":[0,0,0,0,0,0,0,0,0,0,0,0,0,0,0,0,0,0,0,0,0,0,0,0,0,0,0,0,0,0,0,0,0,0,0,0,0,0,0,0,0,0,0,0,0,0,0,0,0,0,0,0,0,0,0,0,0,0,0.6189,0.6189,0,0.6242,0.6243,0.6243,0.625,0.6249,0.6249,0.6248,0.6306,0.6308,0.631,0,0,0,0,0,0,0,0,0,0,0,0,0,0.6094,0.6096,0.6189,0.6189,0.619,0.6242,0.6243,0.6243,0.625,0.6249,0.6249,0.6248,0.6305,0.6308,0.631,0,0,0,0,0,0,0,0,0,0,0,0,0,0.614,0.6096,0.6188,0.6199,0.6201,0.6242,0.6243,0.6244,0.625,0.6249,0.6249,0.6248,0.6305,0.6307,0.631,0.6345,0,0,0.632,0.6321,0,0,0,0,0,0,0,0,0.6138,0.6144,0.6197,0.6199,0.62,0.6238,0.623,0.6278,0.625,0.6232,0.6248,0.6247,0.6284,0.6289,0.6301,0.6348,0.635,0.632,0.6322,0.6323,0.6324,0,0,0,0,0,0,0,0.6134,0.6141,0.621,0.6198,0.62,0.6202,0.6208,0.6239,0.6262,0.6233,0.6234,0.624,0.6285,0.6298,0.6302,0.6351,0.632,0.6323,0.6325,0.6326,0.6428,0.6429,0,0,0,0,0,0,0.6129,0.6139,0.6208,0.6211,0.6166,0.6205,0.6211,0.6227,0.6261,0.6266,0.624,0.624,0.6293,0.6299,0.6304,0.6347,0.6323,0.6326,0.6328,0.6427,0.6428,0.6429,0,0,0,0,0,0,0.6127,0.6135,0.6206,0.6175,0.6184,0.6207,0.6225,0.6229,0.6241,0.6267,0.6271,0.6249,0.6293,0.63,0.6334,0.6349,0.6327,0.633,0.6426,0.6427,0.6429,0.6432,0,0,0,0,0,0,0.6124,0.6134,0.6147,0.6175,0.6186,0.6235,0.6226,0.623,0.6246,0.6246,0.6276,0.6281,0.6293,0.633,0.6337,0.6352,0.6332,0.6425,0.6427,0.6428,0.643,0.6433,0.6435,0,0,0,0,0,0.6121,0.6147,0.6148,0.6156,0.6203,0.6235,0.6242,0.6254,0.6247,0.6261,0.6277,0.628,0.6346,0.6333,0.6342,0.6358,0.6424,0.6426,0.6428,0.6429,0.6432,0.6435,0,0,0,0,0,0,0.6121,0.6151,0.6152,0.6188,0.6209,0.6237,0.6254,0.6257,0.6281,0.628,0.6295,0.6302,0.6336,0.635,0.6336,0.6393,0.6384,0.6388,0.6382,0.6385,0.6388,0.6384,0.6335,0,0,0,0,0,0.6125,0.6148,0.6173,0.6203,0.6213,0.6231,0.6246,0.6254,0.6277,0.6286,0.6305,0.6327,0.6353,0.637,0.6395,0.6432,0.6439,0.6447,0.645,0.6451,0.6455,0.6475,0.6479,0.6436,0.6436,0.6436,0,0,0.6134,0.6153,0.6167,0.6203,0.622,0.6245,0.6239,0.6265,0.6284,0.629,0.6324,0.6338,0.6364,0.64,0.6416,0.6413,0.6468,0.6454,0.6455,0.6458,0.6477,0.6481,0.6485,0.6437,0.6437,0.6437,0,0,0.6163,0.618,0.6205,0.6222,0.6248,0.626,0.6266,0.6293,0.6302,0.6335,0.634,0.6363,0.6407,0.6425,0.644,0.6474,0.6478,0.6482,0.6495,0.6514,0.6517,0.6521,0.6533,0.6537,0.6485,0.6485,0.6485,0,0.6171,0.6208,0.6219,0.6245,0.626,0.6265,0.6292,0.6308,0.6341,0.6352,0.6347,0.6401,0.642,0.6459,0.6467,0.6479,0.6487,0.6479,0.6516,0.6519,0.6522,0.6534,0.6539,0.6486,0.6486,0.6485,0.6485,0,0.6217,0.6242,0.626,0.629,0.6307,0.6333,0.6349,0.6365,0.6371,0.6383,0.6417,0.6438,0.6468,0.6477,0.6484,0.6518,0.6515,0.6513,0.6505,0.6527,0.6538,0.6542,0.6486,0.6486,0.6486,0.6486,0,0,0.6249,0.6283,0.629,0.6303,0.6331,0.6351,0.6377,0.6404,0.6418,0.644,0.6463,0.6499,0.6497,0.6514,0.6522,0.6539,0.6564,0.6535,0.6536,0.654,0.6603,0.6604,0.6609,0.6566,0.6567,0.6568,0.6601,0,0.6281,0.6327,0.6337,0.6377,0.64,0.6404,0.6427,0.6447,0.6459,0.6481,0.6494,0.652,0.6515,0.6525,0.6542,0.6557,0.6577,0.6555,0.6588,0.6589,0.6581,0.6615,0.6617,0.6648,0.6605,0.6606,0.6606,0,0.6325,0.6347,0.6389,0.6412,0.6423,0.6443,0.6468,0.6489,0.6511,0.6518,0.6536,0.6543,0.657,0.6559,0.6598,0.6582,0.6596,0.6606,0.6607,0.6611,0.6599,0.6621,0.6658,0.6662,0.6613,0.6613,0.6612,0,0.6345,0.6384,0.6414,0.6425,0.6454,0.6468,0.6481,0.6502,0.6517,0.654,0.655,0.6575,0.6589,0.6609,0.6622,0.6613,0.6659,0.665,0.6666,0.6666,0.6677,0.6676,0.6717,0.6685,0.6685,0.6684,0.6684,0,0.638,0.6406,0.6423,0.6442,0.647,0.6481,0.6509,0.6522,0.654,0.6562,0.6567,0.6587,0.6603,0.6625,0.6635,0.6665,0.6671,0.6678,0.6681,0.6678,0.6677,0.6688,0.6686,0.6686,0.6685,0.6685,0.6685,0,0.6407,0.642,0.6453,0.6476,0.6483,0.6503,0.6523,0.6541,0.6552,0.6579,0.6586,0.6604,0.6631,0.6645,0.6678,0.6685,0.6718,0.6719,0.671,0.6712,0.6727,0.6726,0.6777,0.6784,0.6747,0.6747,0.6747,0,0.6429,0.6449,0.6474,0.6488,0.65,0.6523,0.6538,0.655,0.6566,0.6591,0.6607,0.6633,0.6654,0.6696,0.6712,0.6737,0.674,0.6756,0.6744,0.674,0.674,0.6739,0.6741,0.6758,0.6758,0.6759,0.6759,0,0.6467,0.6472,0.6493,0.6517,0.6535,0.6554,0.6573,0.6585,0.6599,0.6617,0.6643,0.6659,0.6692,0.6718,0.6744,0.6757,0.6761,0.6762,0.6767,0.6765,0.6759,0.6763,0.6716,0.6761,0.6761,0.6761,0.6761,0.6761,0.6492,0.651,0.653,0.6553,0.6568,0.6586,0.6604,0.6616,0.6638,0.6665,0.6671,0.6698,0.6719,0.6754,0.6768,0.679,0.6787,0.6794,0.6796,0.6798,0.6799,0.6755,0.6795,0.6795,0.6795,0.6795,0.6795,0,0.6531,0.6543,0.6565,0.6591,0.6609,0.6609,0.663,0.6645,0.6669,0.6688,0.6708,0.6738,0.6762,0.678,0.6805,0.6819,0.6822,0.6826,0.6825,0.6828,0.68,0.6793,0.6824,0.6824,0.6824,0.6824,0.6824,0.6824,0.6553,0.6582,0.6589,0.6625,0.6638,0.6664,0.6676,0.6692,0.6706,0.6739,0.6759,0.677,0.6788,0.6814,0.6837,0.6841,0.6851,0.6855,0.686,0.6833,0.683,0.6827,0.6821,0.6857,0.6857,0.6886,0.6886,0.6886]},{"header":{"parameterUnit":"m.s-1","parameterCategory":1,"la1":30.2991,"la2":30.254,"lo1":-89.0895,"lo2":-89.0444,"dy":0.0017,"dx":0.0017,"nx":28,"ny":28,"refTime":"2023-08-02T21:00:00:Z","depth":0,"parameterNumber":3,"parameterNumberName":"V-component_of_WINDS"},"data":[0,0,0,0,0,0,0,0,0,0,0,0,0,0,0,0,0,0,0,0,0,0,0,0,0,0,0,0,0,0,0,0,0,0,0,0,0,0,0,0,0,0,0,0,0,0,0,0,0,0,0,0,0,0,0,0,0,0,2.857,2.8569,0,2.8549,2.8549,2.8548,2.8577,2.8578,2.8579,2.858,2.8555,2.8553,2.8552,0,0,0,0,0,0,0,0,0,0,0,0,0,2.8629,2.8628,2.857,2.8569,2.8569,2.8549,2.8549,2.8548,2.8577,2.8578,2.8579,2.8581,2.8555,2.8553,2.8551,0,0,0,0,0,0,0,0,0,0,0,0,0,2.8605,2.8628,2.857,2.8581,2.8582,2.8549,2.8549,2.8548,2.8577,2.8578,2.858,2.8581,2.8556,2.8554,2.8551,2.8505,0,0,2.8544,2.8543,0,0,0,0,0,0,0,0,2.8607,2.8603,2.858,2.858,2.8581,2.8567,2.856,2.8533,2.8576,2.8578,2.858,2.8582,2.8557,2.8555,2.8547,2.8504,2.8503,2.8543,2.8542,2.8541,2.854,0,0,0,0,0,0,0,2.8608,2.8604,2.8561,2.8579,2.858,2.8586,2.8584,2.8555,2.8559,2.8578,2.858,2.8578,2.8558,2.855,2.8547,2.8502,2.8543,2.8541,2.854,2.8539,2.8415,2.8414,0,0,0,0,0,0,2.8609,2.8605,2.8562,2.8561,2.8598,2.8583,2.8581,2.857,2.856,2.856,2.8576,2.8579,2.8553,2.855,2.8546,2.8489,2.8541,2.8539,2.8537,2.8417,2.8415,2.8413,0,0,0,0,0,0,2.861,2.8605,2.8563,2.8584,2.8579,2.8581,2.8568,2.8569,2.8561,2.8558,2.8559,2.8568,2.8554,2.855,2.8514,2.8488,2.8537,2.8535,2.8419,2.8417,2.8414,2.8374,0,0,0,0,0,0,2.8612,2.8605,2.8589,2.8583,2.8577,2.8533,2.8566,2.8567,2.8557,2.856,2.855,2.855,2.8555,2.8518,2.8512,2.8486,2.8533,2.8422,2.8418,2.8415,2.8378,2.8371,2.8364,0,0,0,0,0,2.8614,2.8579,2.8588,2.8583,2.8557,2.8531,2.8528,2.8536,2.8555,2.8537,2.8535,2.855,2.8493,2.8514,2.8508,2.848,2.8423,2.8419,2.8415,2.8381,2.8372,2.8365,0,0,0,0,0,0,2.8581,2.8578,2.8589,2.8551,2.8541,2.8536,2.8514,2.8527,2.851,2.8514,2.8523,2.8521,2.8482,2.8478,2.8502,2.8433,2.8461,2.8455,2.8437,2.8428,2.8422,2.8422,2.8531,0,0,0,0,0,2.8569,2.855,2.8548,2.8514,2.8509,2.8513,2.8502,2.8508,2.8498,2.8494,2.849,2.8478,2.8457,2.8443,2.8424,2.8378,2.8374,2.8356,2.8349,2.8344,2.8338,2.831,2.8301,2.84,2.84,2.84,0,0,2.8544,2.8541,2.8528,2.8507,2.8501,2.8478,2.8509,2.8485,2.8467,2.849,2.8456,2.8452,2.8439,2.8398,2.8379,2.8393,2.831,2.8338,2.8334,2.8331,2.8305,2.8295,2.8287,2.8397,2.8398,2.8398,0,0,2.8487,2.8484,2.8454,2.8447,2.8437,2.8439,2.8432,2.8425,2.8423,2.839,2.8405,2.8384,2.8349,2.8338,2.8328,2.8265,2.8277,2.8259,2.8222,2.8195,2.8187,2.818,2.8154,2.8145,2.8254,2.8254,2.8253,0,2.8458,2.8426,2.8437,2.8411,2.84,2.8421,2.8389,2.8381,2.8365,2.8356,2.8372,2.8326,2.8319,2.8274,2.8258,2.8251,2.824,2.8259,2.8188,2.8181,2.8174,2.815,2.8141,2.8251,2.8251,2.8252,2.8252,0,2.8388,2.8366,2.8343,2.8326,2.8313,2.8285,2.8289,2.8275,2.8282,2.8282,2.8245,2.8238,2.8216,2.8207,2.8214,2.8161,2.8169,2.8187,2.8214,2.8162,2.8139,2.813,2.8248,2.8249,2.8249,2.825,0,0,2.8309,2.8299,2.829,2.8281,2.8271,2.8253,2.8224,2.8204,2.8189,2.8177,2.8151,2.8119,2.8134,2.8123,2.8129,2.8105,2.8052,2.8125,2.8125,2.8109,2.7989,2.7974,2.7963,2.8061,2.8059,2.8058,2.7989,0,2.825,2.8201,2.8209,2.8161,2.8138,2.8157,2.8131,2.8121,2.8119,2.8099,2.8097,2.8073,2.8097,2.8089,2.8067,2.8063,2.8027,2.8069,2.8033,2.8032,2.8033,2.7952,2.7937,2.7872,2.798,2.7979,2.7978,0,2.8174,2.8159,2.8108,2.8099,2.809,2.8067,2.8047,2.8028,2.8016,2.8016,2.8003,2.8012,2.7981,2.8011,2.7965,2.7993,2.7979,2.7975,2.7972,2.7967,2.8,2.7941,2.7852,2.7841,2.7965,2.7966,2.7967,0,2.8117,2.8084,2.8049,2.8042,2.8031,2.8014,2.8008,2.7998,2.7984,2.7967,2.7957,2.7936,2.7924,2.7906,2.7909,2.7931,2.7861,2.7892,2.7858,2.7857,2.784,2.7841,2.7744,2.7836,2.7836,2.7836,2.7837,0,2.8048,2.8016,2.8023,2.8001,2.7964,2.7974,2.7936,2.7933,2.7923,2.7898,2.7914,2.789,2.7897,2.7873,2.7875,2.7835,2.783,2.7827,2.7827,2.7824,2.7824,2.7813,2.7816,2.7834,2.7834,2.7835,2.7835,0,2.7978,2.7982,2.7944,2.7937,2.7934,2.7907,2.79,2.7878,2.7878,2.7847,2.784,2.7839,2.7811,2.7813,2.7782,2.7783,2.7732,2.774,2.7737,2.7737,2.7701,2.7703,2.7593,2.7577,2.7682,2.7681,2.768,0,2.7933,2.7908,2.7898,2.7883,2.7877,2.7853,2.7839,2.7847,2.7831,2.7814,2.7793,2.7767,2.7746,2.7701,2.7696,2.7671,2.7676,2.7638,2.7672,2.7668,2.7671,2.7671,2.7667,2.7631,2.763,2.7629,2.7628,0,2.785,2.7853,2.7833,2.7813,2.7796,2.778,2.7766,2.7753,2.7758,2.774,2.7712,2.7696,2.7664,2.7636,2.7612,2.7604,2.7615,2.7618,2.7608,2.7603,2.7601,2.7598,2.7715,2.762,2.7621,2.7621,2.7622,2.7622,2.7789,2.7766,2.7755,2.7732,2.7722,2.7708,2.7686,2.7683,2.766,2.7635,2.7641,2.7609,2.7594,2.7563,2.7553,2.7526,2.7539,2.7526,2.7522,2.7517,2.7512,2.7607,2.7522,2.7523,2.7523,2.7523,2.7523,0,2.7704,2.7698,2.7676,2.7656,2.7636,2.7651,2.7635,2.7617,2.7589,2.7576,2.7555,2.7521,2.7494,2.7487,2.746,2.744,2.7444,2.7432,2.7432,2.7429,2.7504,2.7513,2.7429,2.7429,2.7429,2.7429,2.7429,2.7429,2.7658,2.762,2.7621,2.7577,2.7571,2.7541,2.753,2.7516,2.7504,2.7467,2.7445,2.7441,2.7428,2.7401,2.7375,2.7374,2.7362,2.7347,2.7347,2.7416,2.7425,2.7434,2.7443,2.7345,2.7345,2.7275,2.7274,2.7274]}]]